Theta_e
326 328 330 335 332 326 330 323 318 318 317 316 318 320 322 326 328 326 319 322 323 323 317 317 319 323 318 320 322 321 320 321 320 320 320 320 321 318 320 321 320 319 317 316 312 313 313 312 315
325 328 331 336 331 330 328 321 319 317 316 320 319 318 320 323 328 326 321 322 324 321 312 309 322 320 318 319 318 319 322 320 319 320 320 318 319 320 320 320 321 318 316 313 311 308 306 308 314
325 328 332 327 327 332 328 321 316 316 317 317 315 318 318 321 321 322 320 320 324 320 312 308 318 320 314 317 318 321 320 318 318 318 317 317 316 318 319 315 314 313 314 310 305 304 305 305 312
326 330 331 328 328 327 324 318 316 315 315 316 315 316 319 321 317 318 318 317 319 315 310 306 309 313 310 312 312 315 316 315 313 308 308 309 306 308 311 310 306 306 303 306 304 305 303 304 310
326 331 327 330 330 322 318 317 316 314 315 316 317 316 319 321 320 318 316 313 314 314 313 309 304 305 306 304 304 303 308 305 303 302 302 302 302 302 302 303 302 302 302 302 302 302 302 302 304
328 329 329 331 328 321 318 318 317 315 314 314 316 317 319 321 320 319 315 313 314 312 310 309 305 304 304 303 303 303 303 303 302 302 302 302 302 302 302 301 301 301 301 302 302 302 302 302 302
326 326 330 329 326 322 319 318 315 314 313 315 316 315 318 317 318 317 314 314 314 313 311 309 305 304 303 303 303 303 302 302 302 302 302 302 302 302 301 301 301 301 301 301 301 302 302 302 302
331 326 331 329 325 324 320 318 317 316 315 317 317 315 317 317 316 318 316 317 315 313 312 310 308 304 304 303 303 302 302 302 302 302 302 302 302 302 301 301 301 301 301 301 301 301 302 302 302
330 325 327 328 326 324 320 319 318 318 317 315 316 316 317 317 316 318 319 319 317 315 313 310 309 309 306 306 304 303 302 302 302 302 302 302 303 302 302 302 301 301 301 301 301 301 301 301 301
326 322 326 323 323 320 320 320 319 318 317 317 316 316 317 317 315 315 317 316 317 315 314 311 310 310 309 309 307 306 304 303 303 303 303 302 302 302 302 302 302 302 301 301 301 301 301 301 301
325 325 325 324 324 322 321 320 319 316 314 316 316 315 316 317 314 313 313 312 313 313 313 311 310 309 309 308 308 307 305 304 303 303 303 302 302 302 302 302 302 302 302 302 302 301 301 301 301
323 323 323 324 323 322 320 320 319 317 319 319 317 318 316 315 314 313 311 312 313 313 312 311 310 309 309 309 308 307 306 305 305 304 303 303 303 303 303 303 303 303 303 302 302 302 302 302 302
318 319 321 322 322 320 319 317 318 318 320 319 319 318 317 317 315 314 312 312 313 313 312 311 310 309 309 309 308 307 306 305 305 305 304 304 304 303 303 303 303 303 303 303 303 303 302 302 302
316 316 317 318 318 316 314 313 315 317 319 319 318 318 318 317 317 315 313 312 313 312 312 312 311 310 309 308 307 307 306 305 305 305 304 304 304 304 303 303 303 303 304 304 304 304 304 304 304
316 314 311 313 315 314 315 313 312 314 314 317 318 318 318 318 317 317 315 313 312 312 312 312 313 313 311 309 308 307 306 306 305 305 305 304 304 304 304 305 305 304 304 304 305 305 305 306 306
314 311 312 313 313 315 315 312 310 314 315 314 316 317 318 318 318 317 316 315 313 313 313 314 314 314 313 312 310 307 306 306 305 305 305 305 305 305 305 306 306 306 306 306 306 306 307 307 307
312 314 314 313 313 314 313 312 312 315 314 314 315 316 317 318 318 317 316 315 313 313 314 315 315 314 314 313 312 309 306 306 305 305 305 305 305 306 307 307 307 307 307 307 307 307 308 308 308
314 313 312 312 315 314 313 312 312 315 314 314 314 315 316 317 317 317 316 315 314 314 315 315 315 315 314 314 313 310 308 307 306 306 306 306 306 307 308 308 308 308 308 308 308 308 308 308 308
313 312 312 311 311 314 312 312 313 314 312 313 314 314 315 316 316 316 316 315 315 315 316 316 315 315 314 314 313 311 308 307 307 306 306 307 307 308 309 310 310 309 310 309 309 309 308 308 308
313 313 311 310 313 312 310 310 310 310 310 313 314 316 316 315 315 315 315 316 315 315 315 316 315 315 314 313 312 311 309 308 307 307 307 308 309 310 311 311 310 310 310 310 310 309 309 309 308
313 314 313 312 310 309 309 309 311 310 310 311 313 315 316 317 316 314 315 316 315 315 315 315 315 315 314 313 313 312 310 308 308 308 309 310 310 311 311 311 311 311 311 311 310 310 310 309 309
314 312 313 313 310 309 309 308 307 309 309 307 310 313 314 315 317 317 316 316 316 316 316 315 315 315 314 313 312 311 310 309 309 309 310 310 311 311 311 311 311 311 311 311 311 311 310 310 310
312 313 312 313 311 313 312 310 308 309 311 309 308 313 315 316 316 317 317 316 316 316 316 315 315 315 314 312 312 311 310 309 309 310 311 311 310 311 311 311 311 312 312 312 312 311 311 311 310
312 312 310 312 311 312 312 311 310 310 311 312 311 314 315 316 317 318 317 316 317 316 316 315 315 315 314 313 312 311 310 310 310 310 311 311 311 311 312 313 314 315 314 314 313 312 311 311 310
310 308 308 310 317 312 312 312 313 312 311 311 313 316 316 316 317 318 317 317 317 317 316 315 315 315 314 313 312 311 310 310 311 311 312 312 312 314 314 317 318 318 317 316 315 314 313 311 311
310 309 307 311 318 320 313 316 318 314 314 316 316 317 317 316 317 318 318 318 317 317 316 316 315 315 314 313 312 311 311 311 312 312 312 313 315 318 319 319 319 318 318 317 316 315 313 312 311
311 310 309 313 311 314 312 312 313 313 313 312 313 315 317 317 317 318 318 318 318 317 316 316 316 315 314 312 312 311 311 312 313 313 312 314 318 320 320 319 318 318 317 316 316 315 314 313 312
312 309 312 309 312 311 310 314 315 315 316 313 312 313 316 317 317 318 318 317 318 317 317 316 316 315 314 313 312 312 312 312 313 313 314 316 320 321 320 319 318 317 316 315 315 314 314 314 313
310 311 310 308 308 310 315 313 314 316 314 312 311 315 315 316 316 318 317 316 317 317 317 317 316 316 315 313 313 312 313 313 313 313 314 318 321 321 321 320 319 317 316 315 314 314 313 313 313
308 309 310 311 310 310 311 314 312 313 312 312 313 314 314 316 317 316 316 316 317 317 317 317 317 317 315 314 313 313 313 313 313 314 315 319 321 321 321 320 320 318 317 316 314 313 312 312 312
Wind_Speed
10 11 11 3 4 5 1 2 1 2 0 1 3 4 5 4 2 3 12 10 10 9 9 13 11 11 9 13 9 7 8 7 7 8 6 8 8 8 10 9 11 11 11 12 14 14 14 13 13
9 10 5 2 4 2 4 2 3 2 6 13 7 5 3 1 3 6 15 13 8 7 9 8 12 12 11 10 9 9 8 7 8 8 6 7 7 8 8 9 10 9 10 12 13 15 15 13 15
8 8 2 4 3 3 4 3 4 3 12 4 4 4 2 2 3 6 7 15 13 8 8 11 12 11 9 11 9 10 6 8 8 6 5 5 6 7 7 8 8 8 10 11 13 14 14 13 13
5 1 4 4 3 3 4 4 6 6 3 4 7 5 2 3 2 7 9 12 11 10 9 7 8 9 9 8 8 9 9 6 6 5 6 5 6 7 7 7 9 10 10 11 12 13 13 13 12
2 2 3 2 2 2 2 7 13 4 5 6 5 4 2 6 4 5 10 12 12 11 8 6 6 7 7 7 6 5 6 5 5 4 4 5 6 6 7 8 9 9 10 10 11 11 12 12 11
1 3 4 2 2 2 1 9 8 5 7 8 5 7 4 9 8 8 9 12 10 8 8 7 6 8 8 8 6 6 5 5 4 4 4 4 4 5 6 6 7 8 8 8 8 9 9 10 9
5 3 3 2 3 1 4 12 5 8 6 6 9 5 3 12 11 8 10 11 9 8 8 6 7 9 8 8 8 6 6 5 4 3 2 3 3 3 4 6 6 7 8 8 8 8 8 9 10
3 4 1 2 4 5 6 9 10 12 5 8 8 4 4 15 13 12 12 11 10 10 9 7 7 10 9 8 8 7 5 5 4 4 2 3 3 3 3 4 5 6 6 6 6 6 7 7 8
2 4 0 2 4 5 11 4 6 4 9 8 9 6 3 12 17 19 20 19 17 14 12 9 8 8 9 8 6 5 5 4 4 4 2 3 2 1 2 2 3 4 4 5 6 6 6 7 7
4 3 5 4 3 4 6 4 10 5 7 8 9 10 8 16 21 24 26 25 22 19 16 12 10 9 8 8 7 5 5 3 4 3 2 2 1 0 1 2 3 4 5 5 6 6 7 7 7
4 4 4 4 2 4 5 3 9 7 4 12 14 14 14 21 22 23 23 23 19 16 16 14 12 10 9 8 7 6 5 4 4 4 2 2 1 2 3 4 5 5 6 6 7 7 7 8 8
1 4 4 3 3 3 4 3 5 16 13 7 10 12 17 22 24 24 24 23 22 20 16 13 13 12 10 9 7 6 4 4 3 3 2 2 2 3 4 4 5 5 6 6 7 7 8 9 10
1 2 3 4 4 5 6 9 9 15 23 11 10 16 19 21 21 21 20 20 21 22 18 16 14 14 11 11 9 7 6 5 4 3 2 2 3 4 4 5 5 6 6 7 8 8 9 10 10
3 3 4 5 6 6 4 5 4 9 19 18 17 17 20 23 21 21 24 24 25 22 20 16 16 14 14 12 10 8 8 7 6 4 3 3 3 4 4 5 5 6 7 8 8 9 10 10 11
4 4 6 6 5 4 3 7 11 25 16 20 20 21 24 25 25 25 20 23 23 22 19 19 16 14 14 13 12 11 9 9 7 5 5 4 4 5 5 5 6 7 8 9 10 10 11 11 13
3 4 3 4 6 2 4 10 10 6 18 21 23 25 27 28 28 25 23 22 22 21 21 19 18 16 14 13 12 12 12 11 9 7 7 6 5 5 5 5 6 8 9 9 11 11 12 13 15
5 2 3 8 9 3 4 9 7 6 12 24 22 27 29 30 31 29 26 23 22 22 21 21 20 18 15 13 12 13 14 14 11 10 8 6 6 6 6 5 6 8 8 9 11 12 14 13 14
2 3 4 5 3 3 4 16 13 25 12 20 26 29 31 34 34 28 26 25 23 23 22 21 20 17 16 15 15 16 17 15 14 10 8 8 7 6 7 6 7 9 9 10 13 14 14 16 19
3 3 5 5 4 5 8 12 19 24 17 24 27 29 33 37 31 29 27 26 26 25 25 23 23 21 20 21 21 19 16 13 13 11 9 9 8 8 8 7 8 10 11 12 14 16 18 18 19
2 3 6 6 3 4 8 15 18 14 15 28 36 36 37 35 34 31 30 29 30 28 28 27 23 22 22 22 19 17 14 15 13 12 11 9 9 9 9 9 9 11 13 13 14 16 18 19 18
2 4 3 5 6 3 7 10 6 5 14 22 34 41 40 39 34 31 31 31 29 32 30 28 25 23 23 21 20 20 19 18 15 12 9 8 10 10 10 10 11 12 14 14 14 15 17 18 17
4 2 2 4 5 3 5 6 8 6 8 7 27 37 41 41 38 34 31 33 33 30 28 27 25 23 23 22 23 22 19 16 12 11 11 12 10 9 10 11 12 13 13 13 13 14 15 17 16
6 2 2 1 1 3 3 1 9 3 7 10 15 35 42 40 38 36 34 31 31 30 28 26 25 25 24 24 24 23 21 17 14 16 14 12 11 10 11 12 13 13 13 12 12 13 14 15 16
2 1 5 4 2 2 4 4 7 4 6 5 5 23 36 39 36 33 32 30 30 30 29 27 27 27 25 25 26 25 22 19 19 17 15 12 11 11 11 12 13 13 12 12 12 13 14 14 16
5 6 4 4 3 6 2 1 11 12 9 6 7 14 25 36 34 33 34 32 32 33 32 30 30 29 27 27 27 25 22 21 20 17 15 13 11 9 10 12 12 11 11 11 12 13 13 15 16
3 6 5 4 2 5 2 7 7 6 12 15 17 20 17 29 34 33 33 31 31 32 34 31 32 30 29 28 27 25 23 23 21 18 16 13 11 9 10 10 10 9 9 10 11 12 12 14 14
3 3 3 1 1 2 5 8 11 4 9 11 13 14 14 16 31 30 31 30 30 32 33 32 31 30 29 29 27 27 26 25 23 19 18 15 12 9 9 8 8 8 9 10 11 11 11 13 13
3 5 3 3 3 5 6 6 7 9 11 12 10 13 16 15 25 29 30 29 29 31 31 31 30 29 28 29 29 28 27 26 24 22 21 17 13 10 9 8 7 8 9 10 11 11 12 12 13
2 1 3 3 4 3 3 7 7 4 7 11 14 22 14 12 18 27 27 27 27 29 31 32 33 31 31 32 31 30 29 28 26 25 23 20 17 13 10 8 7 8 8 10 11 12 13 13 14
4 8 7 5 5 3 3 8 5 5 4 7 21 21 14 9 11 18 24 25 27 29 32 35 35 35 33 32 33 33 31 30 29 29 26 24 21 17 12 10 8 8 8 10 12 13 14 15 16
Wind_Direction
314 323 333 328 50 64 312 255 259 173 136 75 76 114 134 75 125 195 146 159 145 168 176 175 158 154 177 156 131 147 128 113 101 94 90 92 79 59 71 62 60 47 49 47 45 44 45 55 59
307 324 331 62 83 70 274 249 221 219 146 123 92 75 56 100 135 153 157 161 157 161 169 177 154 170 157 154 148 139 140 136 126 112 93 82 83 80 63 74 61 57 49 51 46 45 47 58 63
305 322 336 90 110 169 210 195 187 159 159 155 109 69 101 162 184 170 169 165 167 172 177 169 165 169 162 153 156 143 150 146 131 110 120 113 96 87 62 66 62 63 56 48 46 45 48 61 63
313 310 60 85 206 224 204 177 171 151 151 171 141 80 114 182 130 162 164 158 162 165 157 160 170 173 165 156 155 156 151 140 135 140 115 92 79 73 70 63 56 53 52 49 44 43 46 55 59
320 49 60 91 269 276 237 171 167 166 162 154 163 183 168 174 181 178 176 161 165 166 165 174 181 177 173 160 154 146 154 141 137 115 97 87 79 69 59 62 56 51 47 45 41 37 40 45 48
86 74 63 202 247 272 240 177 164 174 160 155 147 149 185 195 206 185 177 166 168 178 177 181 186 187 180 169 166 164 156 155 145 135 118 99 92 78 69 66 59 54 51 48 44 38 39 41 42
115 84 193 222 207 198 223 179 179 177 171 201 159 136 226 198 193 196 181 177 179 190 195 182 190 189 184 176 173 170 162 154 154 149 123 111 90 68 63 55 47 43 37 33 32 34 35 31 32
105 93 88 268 197 232 176 168 201 172 193 159 168 192 226 192 187 188 187 191 205 207 199 195 200 192 188 184 176 169 166 165 169 165 144 140 116 92 43 37 44 40 32 28 26 24 27 26 19
101 63 229 255 155 244 168 152 167 194 164 191 197 227 235 192 183 189 191 199 209 213 209 209 207 195 192 187 185 169 170 178 181 174 156 153 140 125 51 58 65 52 31 23 16 22 18 16 10
107 113 219 210 212 228 183 181 173 169 185 214 213 225 219 195 194 196 199 204 208 211 207 211 213 206 201 191 187 179 178 179 191 193 193 183 191 206 50 47 41 42 33 16 10 10 9 2 0
167 178 216 231 225 178 187 230 182 174 232 225 221 216 201 192 198 207 212 216 214 212 214 216 216 215 212 210 209 206 197 200 205 218 227 243 281 350 4 6 7 6 10 4 1 356 356 353 351
217 245 204 216 219 180 195 215 216 208 231 264 256 227 206 199 206 210 215 217 215 215 219 222 225 225 220 219 224 228 234 227 227 234 252 298 332 349 359 358 358 357 0 354 354 351 348 346 343
190 279 245 245 225 250 245 239 229 242 238 239 219 222 217 212 218 219 224 225 223 222 223 226 233 235 233 234 234 236 243 253 248 248 261 286 323 335 345 338 342 344 346 347 348 348 346 344 338
309 282 289 268 252 251 228 257 241 249 238 231 227 225 221 223 225 220 219 221 224 226 227 228 234 237 238 241 244 247 245 247 247 249 261 290 305 317 323 324 330 332 340 338 341 343 342 340 337
313 320 332 251 230 246 235 289 233 250 238 226 224 224 222 225 224 228 234 229 228 229 231 231 236 242 244 248 250 250 252 250 248 251 259 273 292 303 316 322 327 327 331 334 339 335 338 340 336
23 49 356 291 163 218 120 275 277 268 234 229 223 222 225 228 231 234 234 236 234 230 226 225 227 232 239 245 253 255 255 255 253 256 261 268 275 289 300 314 325 324 330 332 331 333 333 332 329
10 255 236 310 205 126 156 272 269 336 221 221 221 226 229 232 232 232 233 235 234 232 225 221 225 230 238 243 250 253 251 251 252 251 255 263 272 283 295 305 310 312 320 324 322 324 321 326 323
270 307 261 249 256 204 224 260 268 270 265 241 234 232 232 234 235 235 233 231 229 226 225 224 227 230 232 236 242 243 242 242 241 243 247 254 264 273 282 288 295 300 310 317 313 316 318 324 323
276 255 268 259 252 208 239 261 269 268 252 247 243 237 235 237 240 237 237 235 228 224 224 224 224 224 226 228 233 237 240 244 241 240 244 248 256 266 278 286 289 295 301 303 309 313 313 316 322
241 297 285 283 306 196 289 270 262 250 236 237 235 237 236 239 239 235 232 230 227 225 225 224 225 226 227 230 235 240 242 239 235 231 231 237 247 257 268 278 288 293 298 301 304 304 308 313 320
277 221 260 252 322 288 320 288 299 290 237 234 237 237 237 236 236 231 227 227 227 225 225 225 225 225 225 228 230 233 233 232 224 222 223 233 240 250 267 282 291 293 296 301 302 304 302 307 312
302 218 266 318 28 284 34 290 294 289 282 228 236 231 233 234 235 234 230 228 227 227 226 227 226 227 226 225 227 231 233 231 217 221 222 229 244 259 276 286 291 292 293 297 297 295 298 299 305
230 16 338 351 53 354 318 84 269 315 282 250 233 230 228 230 230 232 230 228 229 228 225 225 225 226 225 224 226 230 232 226 217 220 225 234 251 269 280 288 288 291 289 291 291 291 292 294 297
68 342 35 51 81 342 252 156 278 233 231 288 263 237 229 225 227 228 229 229 228 227 224 222 223 224 224 224 226 228 228 222 222 222 230 240 253 267 282 285 290 293 292 291 289 287 290 293 296
70 54 324 336 6 226 184 184 254 285 268 245 282 276 239 224 224 224 223 224 225 223 223 221 222 223 223 223 225 224 223 222 222 222 229 237 248 262 275 285 291 293 293 292 288 287 289 290 293
158 155 162 272 259 286 142 238 253 219 299 286 269 282 269 230 223 224 223 225 223 222 221 221 221 222 222 223 222 221 219 219 220 221 227 234 242 252 266 279 288 289 294 293 293 295 294 290 294
167 185 206 111 31 18 254 293 297 352 344 343 309 267 251 234 222 223 221 226 223 221 218 221 222 223 222 223 221 218 216 217 218 219 227 229 231 241 259 276 285 290 292 292 295 298 295 295 299
139 157 57 6 272 276 287 280 240 325 323 325 339 300 266 253 224 221 224 227 224 222 220 223 225 226 224 223 222 220 218 218 219 221 224 222 220 232 248 264 276 283 288 294 299 299 296 300 298
129 184 90 133 162 208 306 270 218 240 310 313 312 327 301 275 234 224 230 227 227 226 223 225 227 227 225 224 224 223 221 221 221 223 223 218 217 225 237 252 266 276 287 293 298 297 296 298 296
193 190 155 141 230 238 167 267 255 245 266 17 5 8 352 314 261 238 234 233 230 229 227 228 229 229 227 225 225 225 225 225 225 224 221 216 217 223 229 242 254 266 278 289 296 298 298 297 297